Gambell, AK

8:55 AM AKDT on April 27, 2017 (GMT -0800)
Gambell

Weather History for PAGM - March, 2013

Change the Weather History Date:

Saturday, March 9, 2013

  Actual Average Record
Temperature  
Mean Temperature 11 °F -  
Max Temperature 17 °F 14 °F 30 °F (2009)
Min Temperature 5 °F 7 °F -11 °F (2015)
Degree Days  
Heating Degree Days 54    
Moisture  
Dew Point 8 °F    
Average Humidity 86    
Maximum Humidity 100    
Minimum Humidity 72    
Precipitation  
Precipitation 0.00 in - - ()
Sea Level Pressure  
Sea Level Pressure 29.68 in    
Wind  
Wind Speed 15 mph (NNE)    
Max Wind Speed 20 mph    
Max Gust Speed 23 mph    
Visibility 8 miles    
Events      
Averages and records for this station are not official NWS values.
T = Trace of Precipitation, MM = Missing Value Source: NWS Daily Summary

Daily Weather History Graph

Daily Weather History Graph

Search for Another Location

Airport or City:

Trip Planner

Search our weather history database for the weather conditions in past years. The results will help you decide how hot, cold, wet, or windy it might be!

Date:

Astronomy

Mar. 09, 2013 Rise Set
Actual Time 9:04 AM AKST 8:11 PM AKST
Civil Twilight 8:17 AM AKST 8:58 PM AKST
Nautical Twilight 7:22 AM AKST 9:54 PM AKST
Astronomical Twilight 6:23 AM AKST 10:53 PM AKST
Moon 8:06 AM AKST (3/9) 6:06 PM AKST (3/9)
Length of Visible Light 12h 41m
Length of Day
11h 07m
Waning Crescent, 5% of the Moon is Illuminated
Mar 9
Waning Crescent
Mar 11
New
Mar 19
First Quarter
Mar 27
Full
Apr 2
Last Quarter

Hourly Weather History & Observations

Time (AKST) Temp. Windchill Dew Point Humidity Pressure Visibility Wind Dir Wind Speed Gust Speed Precip Events Conditions
12:16 AM 10.4 °F -8.2 °F 8.6 °F 92% 29.47 in 5.0 mi SW 19.6 mph - N/A   Clear
12:36 AM 10.4 °F -8.2 °F 8.6 °F 92% 29.48 in 6.0 mi SW 19.6 mph - N/A   Clear
12:56 AM 10.4 °F -8.2 °F 8.6 °F 92% 29.49 in 6.0 mi SW 19.6 mph - N/A   Clear
1:16 AM 10.4 °F -7.7 °F 6.8 °F 85% 29.49 in 10.0 mi WSW 18.4 mph - N/A   Clear
1:36 AM 10.4 °F -6.6 °F 6.8 °F 85% 29.51 in 10.0 mi SW 16.1 mph - N/A   Clear
1:56 AM 10.4 °F -7.2 °F 6.8 °F 85% 29.52 in 10.0 mi SW 17.3 mph - N/A   Clear
2:16 AM 8.6 °F -9.5 °F 6.8 °F 92% 29.52 in 10.0 mi SW 17.3 mph - N/A   Clear
2:56 AM 8.6 °F -9.5 °F 6.8 °F 92% 29.54 in 10.0 mi SW 17.3 mph - N/A   Clear
3:16 AM 8.6 °F -8.9 °F 5.0 °F 85% 29.55 in 10.0 mi SW 16.1 mph - N/A   Clear
3:36 AM 8.6 °F -7.0 °F 6.8 °F 92% 29.57 in 10.0 mi SW 12.7 mph - N/A   Clear
3:56 AM 8.6 °F -7.7 °F 5.0 °F 85% 29.57 in 10.0 mi SW 13.8 mph - N/A   Clear
4:16 AM 8.6 °F -8.9 °F 5.0 °F 85% 29.57 in 10.0 mi SW 16.1 mph - N/A   Clear
4:36 AM 8.6 °F -8.3 °F 6.8 °F 92% 29.58 in 8.0 mi SSW 15.0 mph - N/A   Scattered Clouds
4:56 AM 8.6 °F -8.3 °F 5.0 °F 85% 29.59 in 1.5 mi SW 15.0 mph - N/A   Overcast
5:16 AM 8.6 °F -6.3 °F 5.0 °F 85% 29.59 in 1.2 mi SSW 11.5 mph - N/A   Overcast
5:36 AM 6.8 °F -7.8 °F 5.0 °F 92% 29.59 in 5.0 mi SSW 10.4 mph - N/A   Scattered Clouds
5:56 AM 6.8 °F -9.3 °F 3.2 °F 85% 29.60 in 10.0 mi SSW 12.7 mph - N/A   Clear
6:16 AM 6.8 °F -9.3 °F 5.0 °F 92% 29.61 in 10.0 mi SSW 12.7 mph - N/A   Clear
6:36 AM 6.8 °F -9.3 °F 5.0 °F 92% 29.61 in 10.0 mi SSW 12.7 mph - N/A   Clear
6:56 AM 8.6 °F -7.0 °F 6.8 °F 92% 29.62 in 4.0 mi SSW 12.7 mph - N/A   Clear
7:16 AM 8.6 °F -4.7 °F 6.8 °F 92% 29.62 in 10.0 mi SSW 9.2 mph - N/A   Clear
7:36 AM 6.8 °F -5.9 °F 5.0 °F 92% 29.62 in 10.0 mi South 8.1 mph - N/A   Clear
7:56 AM 6.8 °F -4.8 °F 5.0 °F 92% 29.62 in 10.0 mi South 6.9 mph - N/A   Clear
8:16 AM 6.8 °F -6.9 °F 3.2 °F 85% 29.63 in 10.0 mi South 9.2 mph - N/A   Clear
8:36 AM 6.8 °F -6.9 °F 5.0 °F 92% 29.63 in 10.0 mi SSE 9.2 mph - N/A   Clear
8:56 AM 5.0 °F -6.9 °F 3.2 °F 92% 29.63 in 10.0 mi SSE 6.9 mph - N/A   Clear
9:16 AM 6.8 °F -4.8 °F 3.2 °F 85% 29.63 in 10.0 mi SSE 6.9 mph - N/A   Partly Cloudy
9:36 AM 6.8 °F -6.9 °F 6.8 °F 100% 29.62 in 10.0 mi South 9.2 mph - N/A   Clear
9:56 AM 8.6 °F - 6.8 °F 92% 29.63 in 10.0 mi Calm Calm - N/A   Clear
10:16 AM 10.4 °F 2.2 °F 6.8 °F 85% 29.62 in 10.0 mi East 4.6 mph - N/A   Mostly Cloudy
10:36 AM 8.6 °F 0.1 °F 3.2 °F 79% 29.62 in 10.0 mi NNE 4.6 mph - N/A   Mostly Cloudy
10:56 AM 12.2 °F - 8.6 °F 85% 29.62 in 10.0 mi Calm Calm - N/A   Mostly Cloudy
11:16 AM 12.2 °F 4.3 °F 8.6 °F 85% 29.62 in 3.0 mi NNE 4.6 mph - N/A   Overcast
11:36 AM 14.0 °F 3.9 °F 12.2 °F 93% 29.62 in 3.0 mi NE 6.9 mph - N/A   Overcast
11:56 AM 15.8 °F 1.4 °F 12.2 °F 86% 29.61 in 2.0 mi ENE 13.8 mph - N/A   Overcast
12:16 PM 15.8 °F 2.1 °F 14.0 °F 93% 29.61 in 5.0 mi NNE 12.7 mph - N/A   Overcast
12:36 PM 15.8 °F 1.4 °F 12.2 °F 86% 29.62 in 4.0 mi NNE 13.8 mph - N/A   Overcast
12:56 PM 15.8 °F 0.3 °F 12.2 °F 86% 29.62 in 2.0 mi NNE 16.1 mph - N/A   Overcast
1:16 PM 15.8 °F -0.2 °F 12.2 °F 86% 29.62 in 1.8 mi NNE 17.3 mph - N/A   Overcast
1:36 PM 15.8 °F -0.2 °F 12.2 °F 86% 29.63 in 1.0 mi NNE 17.3 mph - N/A   Overcast
1:56 PM 15.8 °F 0.9 °F 14.0 °F 93% 29.64 in 1.2 mi NE 15.0 mph - N/A   Overcast
2:16 PM 17.6 °F 3.7 °F 14.0 °F 86% 29.64 in 0.5 mi NNE 13.8 mph - N/A   Overcast
2:36 PM 17.6 °F 1.3 °F 14.0 °F 86% 29.65 in 1.5 mi NE 19.6 mph - N/A   Overcast
2:56 PM 17.6 °F 2.7 °F 15.8 °F 93% 29.65 in 2.5 mi NE 16.1 mph - N/A   Overcast
3:16 PM 17.6 °F 1.7 °F 14.0 °F 86% 29.65 in 3.0 mi NE 18.4 mph - N/A   Overcast
3:36 PM 17.6 °F 1.3 °F 14.0 °F 86% 29.66 in 3.0 mi NNE 19.6 mph - N/A   Overcast
3:56 PM 17.6 °F 1.7 °F 12.2 °F 79% 29.66 in 10.0 mi NE 18.4 mph - N/A   Overcast
4:16 PM 17.6 °F 1.7 °F 14.0 °F 86% 29.67 in 7.0 mi NNE 18.4 mph - N/A   Overcast
4:36 PM 17.6 °F 2.2 °F 14.0 °F 86% 29.68 in 8.0 mi NNE 17.3 mph - N/A   Overcast
4:56 PM 17.6 °F 1.7 °F 12.2 °F 79% 29.69 in 8.0 mi NNE 18.4 mph 23.0 mph N/A   Overcast
5:16 PM 17.6 °F 2.2 °F 12.2 °F 79% 29.71 in 9.0 mi NNE 17.3 mph - N/A   Overcast
5:36 PM 15.8 °F -0.2 °F 12.2 °F 86% 29.72 in 5.0 mi NNE 17.3 mph - N/A   Overcast
5:56 PM 15.8 °F -0.2 °F 10.4 °F 79% 29.73 in 6.0 mi NNE 17.3 mph - N/A   Mostly Cloudy
6:16 PM 14.0 °F -3.0 °F 10.4 °F 86% 29.74 in 5.0 mi NNE 18.4 mph - N/A   Mostly Cloudy
6:36 PM 14.0 °F -3.0 °F 10.4 °F 86% 29.75 in 8.0 mi NNE 18.4 mph - N/A   Partly Cloudy
6:56 PM 12.2 °F -4.8 °F 10.4 °F 92% 29.77 in 10.0 mi NNE 17.3 mph - N/A   Partly Cloudy
7:16 PM 12.2 °F -4.3 °F 10.4 °F 92% 29.78 in 10.0 mi North 16.1 mph - N/A   Mostly Cloudy
7:36 PM 12.2 °F -4.8 °F 8.6 °F 85% 29.80 in 10.0 mi North 17.3 mph - N/A   Overcast
7:56 PM 10.4 °F -6.6 °F 8.6 °F 92% 29.82 in 10.0 mi North 16.1 mph - N/A   Mostly Cloudy
8:16 PM 10.4 °F -8.2 °F 5.0 °F 79% 29.84 in 10.0 mi North 19.6 mph - N/A   Partly Cloudy
8:36 PM 8.6 °F -9.5 °F 3.2 °F 79% 29.86 in 10.0 mi North 17.3 mph - N/A   Clear
8:56 PM 8.6 °F -10.0 °F 3.2 °F 79% 29.88 in 10.0 mi North 18.4 mph - N/A   Clear
9:16 PM 8.6 °F -10.0 °F 3.2 °F 79% 29.89 in 10.0 mi North 18.4 mph - N/A   Clear
9:36 PM 8.6 °F -8.3 °F 3.2 °F 79% 29.90 in 10.0 mi North 15.0 mph - N/A   Clear
9:56 PM 8.6 °F -7.7 °F 1.4 °F 73% 29.92 in 10.0 mi North 13.8 mph - N/A   Clear
10:16 PM 6.8 °F -8.6 °F 1.4 °F 79% 29.95 in 10.0 mi North 11.5 mph - N/A   Clear
10:36 PM 6.8 °F -8.6 °F 1.4 °F 79% 29.97 in 10.0 mi North 11.5 mph - N/A   Clear
10:56 PM 6.8 °F -7.8 °F 1.4 °F 79% 29.99 in 10.0 mi North 10.4 mph - N/A   Clear
11:16 PM 6.8 °F -5.9 °F -0.4 °F 72% 30.01 in 10.0 mi North 8.1 mph - N/A   Clear
11:36 PM 6.8 °F -4.8 °F 1.4 °F 79% 30.02 in 10.0 mi North 6.9 mph - N/A   Scattered Clouds
11:56 PM 6.8 °F -6.9 °F 3.2 °F 85% 30.02 in 10.0 mi NE 9.2 mph - N/A   Overcast